Location: Unspecified
(50.0830°N, 0.0000°E)
Time: 03:42:12
(UTC+00:00)

Envisat - Pass Details

Date: 28 November 2019
Orbit: 764 x 766 km, 98.1° (Epoch: 07 December)

Event Time Altitude Azimuth Distance (km) Brightness Sun altitude
Rises 18:22:16 0° 182° (S) 3,220 6.4 -21.6°
Reaches altitude 10° 18:24:40 10° 189° (S) 2,298 5.6 -22.0°
Maximum altitude 18:29:31 45° 262° (W) 1,032 4.1 -22.8°
Drops below altitude 10° 18:34:24 10° 335° (NNW) 2,314 5.7 -23.5°
Sets 18:36:50 0° 342° (NNW) 3,244 6.4 -23.9°
